Regional Weather Roundup
Issued by NWS Sterling, VA

Home | Current Version | Previous Version | Text Only | Print | Product List | Glossary On
Versions: 1 2 3 4 5 6 7 8 9 10 11 12 13 14 15 16 17 18 19 20 21 22 23 24 25 26 27 28 29 30 31 32 33 34 35 36 37 38 39 40 41 42 43 44 45 46 47 48 49 50
000
ASUS41 KLWX 301011
RWRLWX

REGIONAL WEATHER ROUNDUP
NATIONAL WEATHER SERVICE BALTIMORE MD/WASHINGTON DC
600 AM EDT TUE MAY 30 2017

Note: "FAIR" indicates few or no clouds below 12,000 feet
with no significant weather and/or obstructions to visibility.
 TC=TEMPERATURE CELSIUS

 * =Non NWS site. Station does not report precipitation (e.g. rain,
    snow, etc.), thunder, or fog.

DCZ001-MDZ009-015-VAZ040>042-051-053>054-301100-
WASHINGTON METRO

CITY           SKY/WX    TMP DP  RH WIND       PRES   REMARKS
WASHINGTON NAT CLOUDY    63  62  97 E13       30.06R FOG
DULLES         DRIZZLE   64  61  90 SE7       30.04R FOG
ANDREWS AFB    CLOUDY    61  60  96 E7        30.05R
FT BELVOIR     CLOUDY    65  61  88 E3        30.05R
QUANTICO       CLOUDY    67  65  93 E5        30.05R
COLLEGE PARK*  CLOUDY    60  58  95 E5        30.06R
LEESBURG*      CLOUDY    64  64 100 CALM      30.06R FOG
MANASSAS*      CLOUDY    64  63  96 SE5       30.05R FOG
GAITHERSBURG*  FOG       59  59 100 VRB5      30.07R VSB 1

$$

MDZ006>007-011-014-301100-
BALTIMORE METRO

CITY           SKY/WX    TMP DP  RH WIND       PRES   REMARKS
BWI AIRPORT    CLOUDY    59  59 100 E9        30.07R FOG
MD SCIENCE CTR   N/A     61  58  90 MISG      30.08R
MARTIN STATE   CLOUDY    61  61 100 E6        30.09F FOG
ANNAPOLIS      CLOUDY    62  61  96 E8        30.07R
FORT MEADE*    CLOUDY    59  55  88 E7        30.10R

$$

MDZ012-015-019>023-301100-
MARYLAND EASTERN SHORE

CITY           SKY/WX    TMP DP  RH WIND       PRES   REMARKS
OCEAN CITY     LGT RAIN  60  58  92 E6        30.10R
SALISBURY      LGT RAIN  60  60 100 E8        30.07R
BAY BRIDGE AP* CLOUDY    59  57  94 E8        30.07F
CAMBRIDGE*       N/A     59  57  94 E10       30.07F
EASTON*        CLOUDY    59  57  94 E8        30.12R

$$

MDZ017>025-301100-
SOUTHERN MARYLAND

CITY           SKY/WX    TMP DP  RH WIND       PRES   REMARKS
PATUXENT RIVER CLOUDY    62  62 100 E12       30.06R
ST INIGOES     CLOUDY    64  62  93 VRB7      30.05R
LEONARDTOWN*   CLOUDY    61  59  94 CALM      30.07S

$$

MDZ003>005-301100-
NORTH CENTRAL MARYLAND

CITY           SKY/WX    TMP DP  RH WIND       PRES   REMARKS
FREDERICK*     CLOUDY    63  63 100 E3        30.08R
HAGERSTOWN APT CLOUDY    66  63  90 E9        30.02S
WESTMINSTER*   LGT RAIN  59  59 100 E7        30.06

$$

MDZ501>502-301100-
WESTERN MARYLAND

CITY           SKY/WX    TMP DP  RH WIND       PRES   REMARKS
OAKLAND*       CLOUDY    54  50  87 S6        30.07R
CUMBERLAND*    PTCLDY    57  57 100 CALM      30.06S

$$

VAZ025>031-301100-
SHENANDOAH VALLEY

CITY           SKY/WX    TMP DP  RH WIND       PRES   REMARKS
WINCHESTER*    MOCLDY    55  55 100 CALM      30.02S
FRONT ROYAL*   CLOUDY    57  57 100 CALM      30.01S
LURAY*         CLOUDY    57  57 100 CALM      30.02S
NEW MARKET*    CLOUDY    57  56  96 CALM      30.02S
STAUNTON*      CLOUDY    57  56  96 CALM      30.06R
WAYNESBORO*    CLOUDY    58  57  97 CALM      30.04S

$$

WVZ021-048>050-054>055-301100-
EASTERN WEST VIRGINIA PANHANDLE

CITY           SKY/WX    TMP DP  RH WIND       PRES   REMARKS
MARTINSBURG    CLOUDY    66  64  93 E7        30.02R
PETERSBURG*    PTCLDY    56  56  99 CALM      30.04R FOG

$$

VAZ036>039-050-301100-
CENTRAL FOOTHILLS

CITY           SKY/WX    TMP DP  RH WIND       PRES   REMARKS
CHARLOTTESVILL CLOUDY    64  62  93 CALM      30.03R
CULPEPER*      DRIZZLE   67  67 100 CALM      30.04R
ORANGE*        CLOUDY    64  64 100 CALM      30.02R FOG
GORDONSVILLE*  CLOUDY    67  67 100 CALM      30.02R FOG
WARRENTON*     CLOUDY    66  63  88 SE5       30.03R FOG

$$

VAZ055>057-301100-
NORTH AND CENTRAL PIEDMONT

CITY           SKY/WX    TMP DP  RH WIND       PRES   REMARKS
FREDERICKSBRG* CLOUDY    66  66 100 SE7       30.03R
STAFFORD*      CLOUDY    65  65 100 SE8       30.08R

$$

NCZ024-NYZ072-PAZ021-071-VAZ022-071-301100-
OTHER REGIONAL OBSERVATIONS

CITY           SKY/WX    TMP DP  RH WIND       PRES   REMARKS
NEW YORK CITY  CLOUDY    55  52  89 VRB3      30.17S
PHILADELPHIA   CLOUDY    57  52  83 E7        30.12F
PITTSBURGH     CLOUDY    61  58  90 CALM      29.97R
ROANOKE        MOCLDY    64  59  83 NE5       30.05R
RICHMOND       CLOUDY    68  65  90 E8        30.02S
RALEIGH        LGT RAIN  68  67  96 NW3       30.04R FOG

$$

ANZ530>537-301100-
MARINE OBSERVATIONS

STATION/POSITION TIME  TEMP    WIND        PRES
                       AIR SEA DIR/SP/G
                 (UTC) (F)     (DEG/KT/KT) (MB)
THOMAS PT LIGHT  1000   60 66  110/ 13/ 14   N/A
BALT KEY BRIDGE  0948   59     100/ 12/ 13 1018.2R
COVE POINT       0948   61     120/  9/ 11 1018.5R
LEWISETTA        0948   66 71  130/ 11/ 13 1017.2R
SOLOMONS ISLAND  0948   63 69  100/ 11/ 13   N/A
PINEY POINT      0948          120/ 10/ 12   N/A

$$




USA.gov is the U.S. government's official web portal to all federal, state and local government web resources and services.